Location: G�migny
(47.9646°N, 1.6950°E)
Time: 11:40:16
(UTC+00:00)

YAOGAN 6 - Visible Passes

Search period start: 23 January 2020 00:00
Search period end: 02 February 2020 00:00
Orbit: 466 x 504 km, 97.0° (Epoch: 23 January)

Date Brightness Start Highest point End Pass type
(mag) Time Alt. Az. Time Alt. Az. Time Alt. Az.
23 Jan 3.7 06:30:29 10° NNE 06:33:55 47° E 06:37:19 10° S visible
23 Jan 3.4 17:09:48 10° SE 17:13:04 30° ENE 17:16:19 10° N visible
23 Jan 5.3 18:43:41 10° SW 18:46:36 22° W 18:49:30 10° NW visible
24 Jan 5.1 06:06:43 10° NE 06:09:42 24° E 06:12:37 10° SSE visible
24 Jan 4.1 18:18:53 10° SSW 18:22:21 39° W 18:25:50 10° NNW visible
25 Jan 5.9 05:43:34 10° ENE 05:45:23 13° E 05:47:12 10° ESE visible
25 Jan 2.7 17:54:32 10° S 17:58:12 78° WSW 18:01:52 10° NNW visible
26 Jan 2.5 06:51:32 10° NNE 06:55:06 89° E 06:58:36 10° SSW visible
26 Jan 2.7 17:30:33 10° SSE 17:34:08 53° ENE 17:37:41 10° N visible
26 Jan 6.1 19:06:15 10° WSW 19:07:56 13° W 19:09:38 10° WNW visible
27 Jan 3.9 06:27:32 10° NNE 06:30:57 44° E 06:34:17 10° S visible
27 Jan 5.2 18:40:41 10° SSW 18:43:37 23° W 18:46:34 10° NW visible
28 Jan 5.3 06:03:50 10° NE 06:06:42 23° E 06:09:33 10° SSE visible
28 Jan 4.0 18:15:55 10° S 18:19:24 42° W 18:22:52 10° NNW visible
29 Jan 6.0 05:40:46 10° ENE 05:42:23 13° E 05:43:59 10° ESE visible
29 Jan 2.6 17:51:36 10° S 17:55:15 83° WSW 17:58:54 10° NNW visible
30 Jan 2.6 06:48:34 10° NNE 06:52:07 84° ESE 06:55:36 10° S visible
30 Jan 2.8 17:27:38 10° SSE 17:31:10 50° ENE 17:34:41 10° N visible
30 Jan 6.1 19:03:07 10° WSW 19:04:57 13° W 19:06:47 10° WNW visible
31 Jan 4.0 06:24:35 10° NNE 06:27:57 41° E 06:31:16 10° S visible
31 Jan 5.2 18:37:39 10° SSW 18:40:39 24° W 18:43:38 10° NW visible
01 Feb 5.4 06:00:55 10° NE 06:03:42 22° E 06:06:27 10° SE visible
01 Feb 3.8 18:12:56 10° S 18:16:25 44° W 18:19:54 10° NNW visible
